Location: Krasnoyarskiy Pitomnik
(51.1333°N, 71.6167°E)
Time: 10:16:16
(UTC+00:00)

Cosmos 2219 Rocket - Pass Details

Date: 22 October 2021
Orbit: 826 x 848 km, 71.0° (Epoch: 06 December)

Event Time Altitude Azimuth Distance (km) Brightness Sun altitude
Exits shadow 22:28:04 - 341° (NNW) 2,688 4.9 -31.9°
Reaches altitude 10° 22:28:51 10° 346° (NNW) 2,463 4.7 -31.7°
Maximum altitude 22:33:13 22° 37° (NE) 1,752 4.3 -31.1°
Drops below altitude 10° 22:37:35 10° 88° (E) 2,466 5.4 -30.5°
Sets 22:40:35 0° 103° (ESE) 3,401 6.1 -30.0°
